Total_Precipitation_Accumulation
1.26 1.28 1.37 1.46 1.43 1.38 1.37 1.36 1.47 1.51 1.56 1.59 1.63 1.68 1.68 1.79 2.07 2.37 2.28 2.27 2.30 2.32 2.34 2.52 2.61 2.78 2.82 2.69 2.67 2.67 2.81 2.99 2.74 2.36 2.19 2.06 1.89 1.71 1.65 1.53 1.45 1.47 1.45
1.08 1.14 1.17 1.29 1.29 1.28 1.31 1.44 1.52 1.51 1.45 1.38 1.45 1.51 1.46 1.58 1.85 2.16 2.33 2.46 2.57 2.52 2.54 2.72 2.76 2.78 2.75 2.64 2.66 2.64 2.64 2.87 2.79 2.49 2.37 2.24 2.03 1.81 1.72 1.64 1.43 1.34 1.40
0.97 1.00 1.05 1.19 1.34 1.41 1.45 1.49 1.58 1.60 1.55 1.56 1.58 1.55 1.66 1.74 1.77 1.94 2.15 2.27 2.40 2.46 2.58 2.61 2.58 2.70 2.62 2.60 2.49 2.45 2.48 2.65 2.88 2.67 2.53 2.53 2.36 2.09 1.95 1.78 1.62 1.62 1.37
0.89 1.03 1.09 1.27 1.48 1.57 1.58 1.60 1.61 1.63 1.62 1.67 1.67 1.69 1.79 1.82 1.78 1.87 2.04 2.18 2.26 2.32 2.45 2.54 2.59 2.58 2.60 2.73 2.60 2.59 2.74 2.85 2.93 2.86 2.73 2.79 2.73 2.51 2.28 2.04 1.85 1.73 1.57
0.98 1.14 1.31 1.48 1.55 1.61 1.67 1.69 1.75 1.78 1.69 1.79 1.84 1.81 1.80 1.71 1.63 1.88 2.03 2.05 2.23 2.30 2.31 2.30 2.39 2.62 2.67 2.68 2.47 2.59 2.81 2.81 2.75 2.75 2.72 2.87 2.88 2.75 2.42 2.13 1.99 1.96 1.80
1.25 1.42 1.51 1.59 1.64 1.59 1.59 1.62 1.78 1.85 1.91 2.03 2.06 2.05 1.96 1.70 1.90 1.99 2.01 2.08 2.19 2.23 2.26 2.22 2.15 2.17 2.24 2.35 2.33 2.34 2.47 2.59 2.66 2.67 2.64 2.73 2.77 2.73 2.60 2.39 2.23 2.13 1.99
1.58 1.75 1.78 1.74 1.76 1.74 1.79 1.82 1.84 1.98 2.11 2.13 2.10 2.12 2.08 2.09 2.11 1.88 1.80 1.73 1.79 1.86 1.88 1.91 1.74 1.65 1.95 2.03 2.19 2.15 2.02 2.05 2.15 2.35 2.45 2.43 2.59 2.70 2.79 2.56 2.46 2.30 2.08
1.83 1.93 2.02 2.05 2.11 2.17 2.27 2.28 2.32 2.37 2.42 2.35 2.26 2.28 2.34 2.32 2.35 2.02 1.88 1.72 1.68 1.67 1.66 1.64 1.67 1.67 1.73 1.91 2.00 1.96 1.85 1.79 1.83 1.86 1.94 2.17 2.40 2.66 2.78 2.72 2.73 2.56 2.27
2.06 2.20 2.28 2.34 2.37 2.41 2.44 2.57 2.71 2.85 2.89 2.78 2.72 2.75 2.75 2.83 2.85 2.48 2.29 2.00 1.88 1.77 1.78 1.84 1.85 1.70 1.77 1.80 1.83 1.79 1.74 1.75 1.79 1.82 1.81 1.96 2.16 2.33 2.62 2.66 2.61 2.52 2.25
2.19 2.37 2.56 2.68 2.71 2.70 2.78 2.93 3.10 3.26 3.29 3.28 3.28 3.29 3.23 3.21 3.19 2.78 2.59 2.30 2.21 2.12 2.13 2.01 1.91 1.71 1.65 1.60 1.60 1.66 1.58 1.56 1.72 1.77 1.75 1.80 1.92 2.09 2.37 2.38 2.35 2.43 2.24
2.45 2.58 2.71 2.82 2.95 3.01 3.11 3.21 3.38 3.51 3.48 3.42 3.37 3.35 3.25 3.18 3.08 2.74 2.56 2.33 2.34 2.34 2.22 2.09 1.95 1.81 1.60 1.55 1.49 1.48 1.51 1.60 1.71 1.77 1.85 1.93 2.04 2.15 2.18 2.21 2.25 2.23 2.21
2.69 2.82 2.87 2.88 2.79 2.79 3.04 3.25 3.47 3.69 3.65 3.57 3.60 3.47 3.31 3.19 2.92 2.68 2.47 2.31 2.37 2.40 2.31 2.19 2.08 1.95 1.69 1.61 1.46 1.43 1.50 1.47 1.54 1.65 1.71 1.81 1.92 2.04 2.18 2.29 2.33 2.24 2.11
2.65 2.71 2.82 2.86 2.90 2.97 3.17 3.34 3.54 3.65 3.60 3.49 3.49 3.41 3.22 3.03 2.89 2.63 2.40 2.30 2.32 2.24 2.30 2.38 2.20 2.04 1.82 1.67 1.63 1.61 1.52 1.40 1.53 1.64 1.61 1.65 1.77 1.95 2.24 2.45 2.54 2.51 2.24
2.28 2.33 2.34 2.46 2.63 2.88 3.20 3.29 3.35 3.41 3.43 3.40 3.30 3.18 3.14 3.11 3.04 2.78 2.46 2.21 2.17 2.19 2.22 2.29 2.16 2.00 1.78 1.64 1.66 1.58 1.41 1.38 1.49 1.57 1.62 1.68 1.82 1.95 2.12 2.29 2.50 2.56 2.39
2.00 2.01 2.12 2.24 2.43 2.65 2.88 3.04 3.02 3.06 3.27 3.17 2.94 2.77 2.67 2.59 2.67 2.58 2.30 2.15 2.10 2.18 2.24 2.29 2.21 2.09 1.93 1.76 1.68 1.68 1.66 1.61 1.55 1.56 1.70 1.74 1.77 1.77 1.85 2.03 2.29 2.39 2.23
1.79 1.80 1.85 1.91 2.07 2.25 2.41 2.55 2.58 2.36 2.43 2.34 2.20 2.08 1.97 1.93 1.93 1.80 1.65 1.61 1.70 1.88 1.97 2.13 2.16 2.06 1.97 1.90 1.86 1.83 1.79 1.70 1.61 1.62 1.66 1.71 1.72 1.71 1.74 1.85 2.03 2.19 2.15
1.90 1.84 1.84 1.87 1.98 2.04 2.07 2.13 2.17 2.03 1.89 1.84 1.72 1.58 1.49 1.47 1.48 1.48 1.50 1.51 1.60 1.66 1.67 1.84 1.88 1.87 1.87 1.91 1.91 1.82 1.74 1.70 1.73 1.69 1.63 1.68 1.74 1.76 1.80 1.89 1.95 2.06 2.12
2.18 2.12 2.00 1.96 1.97 1.90 1.90 1.96 2.06 2.07 1.94 1.72 1.53 1.32 1.21 1.22 1.27 1.41 1.59 1.55 1.58 1.59 1.55 1.66 1.67 1.69 1.77 1.85 1.89 1.87 1.77 1.77 1.81 1.79 1.75 1.78 1.88 1.91 1.88 1.89 1.95 2.00 2.07
2.10 2.08 1.96 1.96 1.99 2.07 2.03 2.02 2.09 2.10 2.14 2.02 1.74 1.49 1.36 1.32 1.36 1.50 1.58 1.49 1.53 1.53 1.53 1.63 1.68 1.68 1.73 1.82 1.87 1.90 1.90 1.92 1.91 1.93 1.92 1.91 1.99 2.06 1.95 1.88 1.96 2.11 2.11
1.84 1.90 1.80 1.80 1.81 1.95 2.00 1.98 2.01 2.13 2.14 2.04 1.85 1.58 1.33 1.20 1.20 1.39 1.50 1.59 1.67 1.70 1.72 1.72 1.79 1.81 1.81 1.82 1.85 1.86 1.90 1.94 1.93 1.94 1.97 2.00 2.04 2.07 1.97 1.94 1.95 2.05 2.03
1.61 1.59 1.55 1.57 1.65 1.79 1.91 1.94 1.91 1.91 1.95 1.89 1.75 1.47 1.24 1.12 1.20 1.33 1.47 1.59 1.64 1.69 1.72 1.75 1.80 1.76 1.75 1.80 1.84 1.82 1.89 1.93 1.94 1.94 2.00 2.02 1.99 1.99 1.95 1.96 1.97 2.01 2.08
1.56 1.54 1.41 1.41 1.60 1.70 1.76 1.83 1.78 1.71 1.68 1.68 1.57 1.33 1.19 1.12 1.23 1.37 1.53 1.58 1.60 1.63 1.62 1.62 1.60 1.60 1.60 1.64 1.69 1.73 1.78 1.79 1.79 1.81 1.88 1.93 1.93 1.92 1.93 1.96 2.01 2.07 2.11
1.33 1.43 1.42 1.43 1.54 1.55 1.59 1.73 1.76 1.73 1.72 1.69 1.52 1.36 1.27 1.30 1.38 1.48 1.58 1.59 1.54 1.53 1.54 1.55 1.53 1.50 1.44 1.48 1.54 1.59 1.69 1.73 1.69 1.68 1.72 1.72 1.77 1.79 1.80 1.80 1.84 1.96 2.04
1.03 1.20 1.24 1.22 1.25 1.34 1.45 1.59 1.67 1.64 1.63 1.68 1.60 1.48 1.44 1.49 1.53 1.57 1.59 1.54 1.48 1.50 1.50 1.47 1.41 1.35 1.31 1.36 1.40 1.36 1.34 1.36 1.37 1.43 1.50 1.52 1.58 1.67 1.69 1.70 1.78 1.86 1.97
0.98 1.10 1.08 1.03 1.01 1.11 1.26 1.39 1.45 1.42 1.39 1.37 1.32 1.27 1.29 1.37 1.44 1.44 1.42 1.39 1.35 1.34 1.30 1.26 1.26 1.21 1.16 1.11 1.12 1.09 1.15 1.11 1.06 1.08 1.19 1.32 1.39 1.52 1.64 1.70 1.79 1.89 1.94
0.95 1.02 1.00 0.91 0.87 0.98 1.17 1.28 1.34 1.37 1.39 1.34 1.29 1.26 1.27 1.30 1.27 1.26 1.28 1.28 1.26 1.23 1.19 1.14 1.10 1.04 1.00 0.96 0.93 0.97 0.99 0.94 0.91 0.96 0.99 1.09 1.24 1.37 1.48 1.54 1.58 1.72 1.84